[[{"header":{"parameterUnit":"m.s-1","parameterCategory":1,"la1":30.2991,"la2":30.254,"lo1":-89.0895,"lo2":-89.0444,"dy":0.0017,"dx":0.0017,"nx":28,"ny":28,"refTime":"2024-11-24T03:00:00:Z","depth":0,"parameterNumber":2,"parameterNumberName":"U-component_of_WINDS"},"data":[0,0,0,0,0,0,0,0,0,0,0,0,0,0,0,0,0,0,0,0,0,0,0,0,0,0,0,0,0,0,0,0,0,0,0,0,0,0,0,0,0,0,0,0,0,0,0,0,0,0,0,0,0,0,0,0,0,0,-0.6995,-0.6996,0,-0.7031,-0.7032,-0.7032,-0.7042,-0.7042,-0.7041,-0.7041,-0.708,-0.7082,-0.7083,0,0,0,0,0,0,0,0,0,0,0,0,0,-0.6938,-0.6939,-0.6995,-0.6996,-0.6996,-0.7031,-0.7032,-0.7032,-0.7042,-0.7042,-0.7041,-0.7041,-0.708,-0.7081,-0.7083,0,0,0,0,0,0,0,0,0,0,0,0,0,-0.6967,-0.6939,-0.6995,-0.7005,-0.7006,-0.7031,-0.7032,-0.7032,-0.7042,-0.7042,-0.7041,-0.7041,-0.7079,-0.7081,-0.7083,-0.7101,0,0,-0.7089,-0.709,0,0,0,0,0,0,0,0,-0.6965,-0.6969,-0.7003,-0.7004,-0.7006,-0.7032,-0.7026,-0.7056,-0.7042,-0.7028,-0.7041,-0.7041,-0.7065,-0.7068,-0.7075,-0.7103,-0.7105,-0.7089,-0.709,-0.7091,-0.7091,0,0,0,0,0,0,0,-0.6963,-0.6968,-0.701,-0.7004,-0.7005,-0.7009,-0.7013,-0.7032,-0.7048,-0.703,-0.703,-0.7034,-0.7065,-0.7073,-0.7076,-0.7105,-0.7089,-0.7091,-0.7092,-0.7092,-0.7151,-0.7152,0,0,0,0,0,0,-0.6959,-0.6966,-0.7008,-0.7011,-0.6984,-0.701,-0.7014,-0.7024,-0.7048,-0.7051,-0.7035,-0.7035,-0.707,-0.7074,-0.7078,-0.7101,-0.7091,-0.7093,-0.7094,-0.7151,-0.7151,-0.7152,0,0,0,0,0,0,-0.6958,-0.6963,-0.7007,-0.6989,-0.6994,-0.7011,-0.7022,-0.7025,-0.7033,-0.7052,-0.7055,-0.704,-0.707,-0.7075,-0.7095,-0.7103,-0.7093,-0.7095,-0.715,-0.7151,-0.7152,-0.7148,0,0,0,0,0,0,-0.6956,-0.6962,-0.6969,-0.6989,-0.6995,-0.7023,-0.7022,-0.7026,-0.7036,-0.7036,-0.7057,-0.706,-0.707,-0.7093,-0.7097,-0.7105,-0.7097,-0.715,-0.7151,-0.7152,-0.7147,-0.7148,-0.7149,0,0,0,0,0,-0.6954,-0.6966,-0.6969,-0.6974,-0.7003,-0.7024,-0.7028,-0.7038,-0.7036,-0.7043,-0.7056,-0.706,-0.7101,-0.7095,-0.71,-0.7108,-0.7149,-0.715,-0.7151,-0.7147,-0.7148,-0.7149,0,0,0,0,0,0,-0.6947,-0.6969,-0.6972,-0.6991,-0.7005,-0.7025,-0.7034,-0.7039,-0.7054,-0.7054,-0.7067,-0.7072,-0.7092,-0.7102,-0.7095,-0.7128,-0.7125,-0.7128,-0.712,-0.7121,-0.7122,-0.7119,-0.7098,0,0,0,0,0,-0.6948,-0.6962,-0.698,-0.6995,-0.7002,-0.7017,-0.7026,-0.7033,-0.7049,-0.7055,-0.7069,-0.7085,-0.7101,-0.7112,-0.7128,-0.7149,-0.7154,-0.7158,-0.7158,-0.7159,-0.7161,-0.7173,-0.7175,-0.7155,-0.7155,-0.7155,0,0,-0.6949,-0.6963,-0.6971,-0.6994,-0.7006,-0.7021,-0.7022,-0.7037,-0.7049,-0.7058,-0.7078,-0.7089,-0.7107,-0.7128,-0.7138,-0.7137,-0.7167,-0.716,-0.7161,-0.7162,-0.7175,-0.7176,-0.7178,-0.7156,-0.7156,-0.7156,0,0,-0.696,-0.6971,-0.6985,-0.6997,-0.7015,-0.7025,-0.7028,-0.7048,-0.7055,-0.7075,-0.7082,-0.7097,-0.7125,-0.7138,-0.7149,-0.7165,-0.717,-0.717,-0.7174,-0.7187,-0.7188,-0.719,-0.7196,-0.7198,-0.7172,-0.7172,-0.7172,0,-0.6959,-0.6981,-0.6992,-0.7007,-0.7018,-0.7026,-0.7041,-0.7052,-0.7075,-0.7082,-0.7081,-0.7117,-0.713,-0.7155,-0.7159,-0.7167,-0.7172,-0.7168,-0.7187,-0.7189,-0.719,-0.7196,-0.7199,-0.7172,-0.7172,-0.7172,-0.7172,0,-0.698,-0.6996,-0.7005,-0.7026,-0.7038,-0.7053,-0.7066,-0.7077,-0.7084,-0.7094,-0.7115,-0.7131,-0.7151,-0.7158,-0.7164,-0.7184,-0.7183,-0.7184,-0.7182,-0.7192,-0.7198,-0.72,-0.7172,-0.7172,-0.7172,-0.7172,0,0,-0.6986,-0.7014,-0.7017,-0.7027,-0.7048,-0.7061,-0.7077,-0.7096,-0.7105,-0.7121,-0.7135,-0.7159,-0.7161,-0.7173,-0.7181,-0.7192,-0.7205,-0.7192,-0.7193,-0.7194,-0.7228,-0.7227,-0.7229,-0.7208,-0.7209,-0.7209,-0.7226,0,-0.6999,-0.7027,-0.7038,-0.7061,-0.7076,-0.7085,-0.7099,-0.7114,-0.7124,-0.7139,-0.7151,-0.7168,-0.7169,-0.7176,-0.7187,-0.7201,-0.7212,-0.72,-0.7222,-0.7223,-0.7217,-0.7232,-0.7231,-0.7246,-0.7229,-0.7229,-0.723,0,-0.7018,-0.7034,-0.7058,-0.7078,-0.7085,-0.7097,-0.7116,-0.713,-0.7148,-0.7155,-0.7168,-0.7176,-0.7194,-0.7191,-0.7217,-0.7209,-0.7219,-0.7227,-0.7228,-0.7231,-0.7227,-0.7235,-0.7251,-0.7254,-0.7233,-0.7233,-0.7233,0,-0.702,-0.7048,-0.7066,-0.7074,-0.7098,-0.7107,-0.7117,-0.7134,-0.7146,-0.7163,-0.717,-0.7189,-0.72,-0.7215,-0.7228,-0.7225,-0.7253,-0.7251,-0.726,-0.726,-0.7266,-0.7265,-0.7284,-0.7272,-0.7272,-0.7272,-0.7272,0,-0.7034,-0.7048,-0.7067,-0.7078,-0.7096,-0.7109,-0.7126,-0.7137,-0.7152,-0.7167,-0.7176,-0.719,-0.7206,-0.7222,-0.7233,-0.7253,-0.7258,-0.7265,-0.7268,-0.7264,-0.7263,-0.7271,-0.727,-0.7273,-0.7273,-0.7273,-0.7272,0,-0.7039,-0.7052,-0.7073,-0.7093,-0.7099,-0.7111,-0.7129,-0.7141,-0.7153,-0.7171,-0.7176,-0.7194,-0.7214,-0.7228,-0.7254,-0.7261,-0.7283,-0.7286,-0.7276,-0.7278,-0.7286,-0.7285,-0.731,-0.7314,-0.73,-0.73,-0.73,0,-0.7046,-0.7058,-0.708,-0.709,-0.71,-0.7116,-0.7128,-0.7141,-0.7153,-0.7175,-0.7184,-0.7204,-0.7221,-0.7252,-0.7268,-0.7288,-0.7291,-0.7299,-0.7294,-0.7291,-0.7292,-0.7291,-0.7292,-0.7299,-0.7299,-0.7299,-0.7299,0,-0.7058,-0.7065,-0.708,-0.7098,-0.7112,-0.7127,-0.7142,-0.715,-0.7167,-0.718,-0.72,-0.7213,-0.7239,-0.7259,-0.7281,-0.7293,-0.7299,-0.7301,-0.7304,-0.73,-0.7295,-0.7298,-0.7278,-0.73,-0.73,-0.73,-0.73,-0.73,-0.7065,-0.7076,-0.7093,-0.7111,-0.7124,-0.7139,-0.7151,-0.7164,-0.718,-0.7202,-0.7209,-0.723,-0.7249,-0.7279,-0.7291,-0.7308,-0.7308,-0.7313,-0.7314,-0.7315,-0.7314,-0.7292,-0.7312,-0.7312,-0.7312,-0.7312,-0.7312,0,-0.7078,-0.709,-0.7106,-0.7127,-0.7141,-0.7146,-0.7163,-0.7175,-0.7193,-0.7209,-0.7226,-0.7249,-0.7269,-0.7287,-0.7308,-0.7318,-0.7322,-0.7323,-0.7322,-0.7325,-0.7313,-0.7308,-0.732,-0.732,-0.732,-0.732,-0.732,-0.732,-0.7086,-0.7105,-0.7113,-0.7139,-0.7151,-0.7171,-0.7181,-0.7195,-0.7208,-0.7233,-0.725,-0.7261,-0.7279,-0.7301,-0.732,-0.7325,-0.7332,-0.7333,-0.7339,-0.7327,-0.7326,-0.7325,-0.732,-0.7334,-0.7334,-0.7349,-0.7349,-0.7349]},{"header":{"parameterUnit":"m.s-1","parameterCategory":1,"la1":30.2991,"la2":30.254,"lo1":-89.0895,"lo2":-89.0444,"dy":0.0017,"dx":0.0017,"nx":28,"ny":28,"refTime":"2024-11-24T03:00:00:Z","depth":0,"parameterNumber":3,"parameterNumberName":"V-component_of_WINDS"},"data":[0,0,0,0,0,0,0,0,0,0,0,0,0,0,0,0,0,0,0,0,0,0,0,0,0,0,0,0,0,0,0,0,0,0,0,0,0,0,0,0,0,0,0,0,0,0,0,0,0,0,0,0,0,0,0,0,0,0,-0.3227,-0.3228,0,-0.3267,-0.3267,-0.3268,-0.3316,-0.3317,-0.3317,-0.3318,-0.3358,-0.3358,-0.3359,0,0,0,0,0,0,0,0,0,0,0,0,0,-0.3194,-0.3194,-0.3227,-0.3228,-0.3228,-0.3267,-0.3267,-0.3268,-0.3316,-0.3317,-0.3317,-0.3318,-0.3358,-0.3358,-0.3359,0,0,0,0,0,0,0,0,0,0,0,0,0,-0.3218,-0.3194,-0.3227,-0.3257,-0.326,-0.3267,-0.3267,-0.3268,-0.3315,-0.3317,-0.3318,-0.3319,-0.3358,-0.3358,-0.3359,-0.334,0,0,-0.3361,-0.3361,0,0,0,0,0,0,0,0,-0.3217,-0.3219,-0.3252,-0.3255,-0.3258,-0.3288,-0.327,-0.3292,-0.3315,-0.3294,-0.3318,-0.3319,-0.3334,-0.3336,-0.3341,-0.3342,-0.3343,-0.3361,-0.3361,-0.3361,-0.3361,0,0,0,0,0,0,0,-0.3215,-0.3218,-0.3243,-0.3252,-0.3256,-0.3268,-0.3273,-0.3275,-0.3307,-0.3296,-0.33,-0.3304,-0.3336,-0.3341,-0.3342,-0.3344,-0.3361,-0.3361,-0.3361,-0.3362,-0.3331,-0.333,0,0,0,0,0,0,-0.3209,-0.3216,-0.3242,-0.3244,-0.324,-0.3268,-0.3273,-0.3277,-0.3307,-0.3313,-0.3303,-0.3306,-0.3339,-0.3342,-0.3344,-0.3324,-0.3361,-0.3362,-0.3362,-0.3332,-0.3331,-0.333,0,0,0,0,0,0,-0.3208,-0.3211,-0.324,-0.3231,-0.3236,-0.3267,-0.3271,-0.3277,-0.3282,-0.3312,-0.3318,-0.3302,-0.334,-0.3343,-0.3341,-0.3326,-0.3362,-0.3362,-0.3334,-0.3332,-0.333,-0.3282,0,0,0,0,0,0,-0.3207,-0.321,-0.3203,-0.3231,-0.3236,-0.3236,-0.327,-0.3277,-0.3283,-0.3287,-0.3313,-0.3318,-0.3341,-0.3339,-0.3341,-0.3327,-0.3363,-0.3335,-0.3333,-0.3331,-0.3285,-0.3279,-0.3274,0,0,0,0,0,-0.3205,-0.3188,-0.3202,-0.3205,-0.3228,-0.3235,-0.3238,-0.3265,-0.3282,-0.3275,-0.3294,-0.3317,-0.3327,-0.3339,-0.3341,-0.3327,-0.3336,-0.3333,-0.3331,-0.3288,-0.328,-0.3274,0,0,0,0,0,0,-0.3157,-0.3192,-0.3208,-0.3199,-0.3214,-0.3243,-0.3235,-0.3256,-0.3266,-0.3269,-0.3302,-0.3308,-0.3301,-0.3314,-0.3326,-0.331,-0.3335,-0.3333,-0.3302,-0.3295,-0.3289,-0.3286,-0.3363,0,0,0,0,0,-0.3145,-0.3148,-0.3178,-0.3167,-0.3174,-0.3203,-0.3207,-0.3226,-0.3243,-0.3249,-0.3268,-0.3283,-0.329,-0.3293,-0.3301,-0.3288,-0.3294,-0.328,-0.3274,-0.3269,-0.3266,-0.326,-0.3254,-0.3321,-0.3321,-0.3321,0,0,-0.3121,-0.314,-0.314,-0.3158,-0.3171,-0.3173,-0.3208,-0.3208,-0.321,-0.3249,-0.3247,-0.3262,-0.3281,-0.3273,-0.3271,-0.3284,-0.3249,-0.3266,-0.3262,-0.3262,-0.3257,-0.3251,-0.3245,-0.3319,-0.332,-0.332,0,0,-0.3077,-0.3092,-0.3085,-0.3098,-0.3118,-0.3138,-0.3136,-0.3162,-0.3174,-0.3173,-0.3202,-0.3205,-0.3216,-0.3228,-0.3235,-0.3198,-0.3219,-0.32,-0.3169,-0.3163,-0.3158,-0.3153,-0.3139,-0.3134,-0.3197,-0.3197,-0.3197,0,-0.3044,-0.3048,-0.3078,-0.3077,-0.3084,-0.312,-0.3113,-0.3124,-0.3146,-0.315,-0.3165,-0.3179,-0.3194,-0.319,-0.318,-0.3186,-0.3184,-0.3196,-0.3156,-0.3152,-0.3148,-0.3135,-0.313,-0.3194,-0.3195,-0.3195,-0.3195,0,-0.3006,-0.3009,-0.3,-0.302,-0.3027,-0.3023,-0.3052,-0.3055,-0.3074,-0.3093,-0.3092,-0.3111,-0.3124,-0.3125,-0.3143,-0.3123,-0.313,-0.315,-0.3176,-0.3139,-0.3127,-0.3122,-0.3191,-0.3191,-0.3192,-0.3193,0,0,-0.2931,-0.2969,-0.2966,-0.2975,-0.3001,-0.3003,-0.3001,-0.3014,-0.3015,-0.303,-0.3028,-0.3037,-0.3056,-0.3064,-0.3085,-0.308,-0.3048,-0.3101,-0.3101,-0.3089,-0.3027,-0.3011,-0.3004,-0.3063,-0.3063,-0.3062,-0.3025,0,-0.2892,-0.289,-0.2917,-0.2907,-0.291,-0.2945,-0.2943,-0.2959,-0.2976,-0.2981,-0.3001,-0.3006,-0.3031,-0.3036,-0.3033,-0.3053,-0.3036,-0.3056,-0.3062,-0.3062,-0.3055,-0.2998,-0.2981,-0.2945,-0.302,-0.302,-0.3019,0,-0.2845,-0.2857,-0.2847,-0.2874,-0.2876,-0.2874,-0.2887,-0.2892,-0.2911,-0.2924,-0.2934,-0.2958,-0.2957,-0.2983,-0.2983,-0.2996,-0.3,-0.301,-0.301,-0.301,-0.3037,-0.2997,-0.2934,-0.2928,-0.3012,-0.3013,-0.3013,0,-0.279,-0.2804,-0.28,-0.2808,-0.2839,-0.2836,-0.2849,-0.2869,-0.2875,-0.2887,-0.2891,-0.2903,-0.291,-0.2919,-0.2945,-0.2961,-0.2942,-0.297,-0.2953,-0.2952,-0.2946,-0.2946,-0.2883,-0.2951,-0.2951,-0.2951,-0.2951,0,-0.2743,-0.2735,-0.2776,-0.2774,-0.2767,-0.2799,-0.2791,-0.2807,-0.2825,-0.2826,-0.2858,-0.2859,-0.2894,-0.2899,-0.292,-0.2917,-0.292,-0.293,-0.2936,-0.2927,-0.2925,-0.2929,-0.2932,-0.2949,-0.295,-0.295,-0.295,0,-0.268,-0.2707,-0.2705,-0.2735,-0.2743,-0.2736,-0.2762,-0.2761,-0.2781,-0.2782,-0.2784,-0.2815,-0.2823,-0.2851,-0.2865,-0.2879,-0.2869,-0.288,-0.2862,-0.2865,-0.2847,-0.2848,-0.2783,-0.2776,-0.2849,-0.2848,-0.2848,0,-0.2647,-0.2642,-0.2672,-0.2675,-0.2687,-0.2692,-0.2698,-0.273,-0.2735,-0.2757,-0.2753,-0.2763,-0.2772,-0.2783,-0.2806,-0.2817,-0.2829,-0.2805,-0.283,-0.2822,-0.2828,-0.2827,-0.2827,-0.2799,-0.2798,-0.2798,-0.2797,0,-0.2585,-0.2599,-0.2607,-0.262,-0.2627,-0.2638,-0.2652,-0.2653,-0.2688,-0.2693,-0.2701,-0.2708,-0.2723,-0.2732,-0.2748,-0.2761,-0.2785,-0.2789,-0.2786,-0.2776,-0.2765,-0.277,-0.2846,-0.279,-0.2791,-0.2791,-0.2792,-0.2792,-0.2536,-0.2534,-0.2554,-0.2562,-0.2576,-0.2588,-0.2588,-0.2609,-0.2616,-0.263,-0.2649,-0.2655,-0.2674,-0.2697,-0.2709,-0.2714,-0.2727,-0.2722,-0.2721,-0.2719,-0.2714,-0.2766,-0.2717,-0.2717,-0.2717,-0.2718,-0.2718,0,-0.2476,-0.2491,-0.2498,-0.2516,-0.2522,-0.2545,-0.2561,-0.2565,-0.257,-0.2586,-0.2595,-0.2604,-0.2614,-0.2639,-0.2651,-0.265,-0.2661,-0.2652,-0.2652,-0.2655,-0.2702,-0.2704,-0.2643,-0.2643,-0.2643,-0.2643,-0.2643,-0.2643,-0.2445,-0.2442,-0.2458,-0.2462,-0.2478,-0.2484,-0.2491,-0.2502,-0.2516,-0.2525,-0.2533,-0.2549,-0.2569,-0.2583,-0.2593,-0.26,-0.2603,-0.259,-0.26,-0.2644,-0.2651,-0.2658,-0.2659,-0.259,-0.259,-0.2552,-0.2552,-0.2552]}]]